FW8684 Weather Reports


time (UTC)temp
F
wind
direction
speed
knots
gust
knots
rain 1hr
in
rain 24hr
in
rain mn
in
humidity
%
barometer
mb
20260507202829 56 293 4.3 13.0 0.01 0.93 0.93 81 994.8
20260507202319 56 158 6.1 13.0 0.01 0.93 0.93 81 994.7
20260507201808 55 225 4.3 9.6 0.01 0.93 0.93 84 994.5
20260507201258 55 248 5.2 13.9 0.02 0.93 0.93 85 994.9
20260507200238 55 270 5.2 7.0 0.02 0.93 0.93 87 995.3
20260507195727 55 315 0.9 7.0 0.02 0.93 0.93 89 995.3
20260507195218 55 293 0.0 11.3 0.02 0.93 0.93 89 995.0
20260507194717 55 270 3.5 11.3 0.01 0.92 0.92 87 995.1
20260507194157 55 270 7.0 9.6 0.01 0.92 0.92 86 994.7
20260507193647 56 293 3.5 9.6 0.01 0.92 0.92 86 993.7
20260507193137 56 270 0.0 9.6 0.01 0.92 0.92 85 993.8
20260507192627 56 225 3.5 9.6 0.01 0.92 0.92 84 992.7
20260507192117 56 180 2.6 9.6 0.01 0.92 0.92 83 992.8
20260507191607 56 203 3.5 12.2 0.00 0.91 0.91 84 992.7
20260507191056 57 225 5.2 13.0 0.00 0.91 0.91 83 992.6
20260507190548 57 248 7.8 13.9 0.00 0.91 0.91 82 993.0
20260507190037 58 225 7.0 17.4 0.00 0.91 0.91 81 993.5
20260507185527 58 225 5.2 17.4 0.00 0.91 0.91 81 993.9
20260507184511 58 203 3.5 13.0 0.00 0.91 0.91 83 993.9
20260507183955 58 248 5.2 13.0 0.00 0.91 0.91 83 993.7
20260507183446 58 180 7.0 13.9 0.00 0.91 0.91 83 993.1
20260507182936 58 225 6.1 13.9 0.00 0.91 0.91 82 993.3
20260507181913 58 180 7.0 15.6 0.00 0.91 0.91 81 993.9
20260507180856 58 203 5.2 14.8 0.00 0.91 0.91 81 994.3
20260507175835 59 248 7.8 15.6 0.00 0.91 0.91 79 995.5
20260507175325 59 270 8.7 15.6 0.00 0.91 0.91 81 995.7
20260507174815 60 225 7.0 13.9 0.00 0.91 0.91 82 995.4
20260507174305 60 135 7.0 13.9 0.00 0.91 0.91 81 995.2
20260507173755 60 248 7.0 13.9 0.00 0.91 0.91 80 994.2
20260507173245 60 248 7.0 13.9 0.00 0.91 0.91 81 994.6
20260507172224 60 248 7.0 15.6 0.00 0.91 0.91 81 994.9
20260507171204 61 248 9.6 17.4 0.00 0.91 0.91 83 994.3
20260507170654 61 248 9.6 15.6 0.00 0.91 0.91 84 994.8
20260507170144 61 270 8.7 15.6 0.00 0.91 0.91 86 994.9
20260507165634 62 203 7.0 15.6 0.00 0.91 0.91 86 995.0
20260507165124 63 248 7.0 14.8 0.00 0.91 0.91 83 994.7
20260507164614 63 248 6.1 20.0 0.00 0.91 0.91 84 994.6
20260507164104 63 225 5.2 20.0 0.00 0.91 0.91 83 995.4
20260507163553 63 225 11.3 20.0 0.00 0.91 0.91 82 996.0
20260507163043 64 248 9.6 17.4 0.00 0.91 0.91 83 996.0
20260507162533 64 248 6.1 18.2 0.00 0.91 0.91 83 995.4
20260507162023 65 225 9.6 18.2 0.00 0.91 0.91 82 995.1
20260507161514 65 248 7.8 14.8 0.00 0.91 0.91 85 994.6
20260507161003 65 225 5.2 12.2 0.00 0.91 0.91 89 994.6
20260507160453 64 248 5.2 13.0 0.00 0.91 0.91 90 994.6
20260507155943 63 225 5.2 14.8 0.00 0.91 0.91 93 994.4
20260507155433 63 180 4.3 14.8 0.00 0.91 0.91 96 993.8
20260507154923 62 203 7.0 12.2 0.00 0.91 0.91 97 993.9
20260507154412 62 180 6.1 9.6 0.00 0.91 0.91 97 994.3
20260507153902 61 270 4.3 9.6 0.00 0.91 0.91 97 994.9
20260507152842 62 180 1.7 7.8 0.00 0.91 0.91 98 993.7
20260507152332 62 180 3.5 7.8 0.00 0.91 0.91 98 992.9
20260507151312 62 203 3.5 7.8 0.01 0.91 0.91 99 992.9
20260507150251 61 180 7.0 9.6 0.01 0.91 0.91 99 992.6
20260507145741 61 158 3.5 12.2 0.01 0.91 0.91 99 993.0
20260507145231 60 135 3.5 12.2 0.01 0.91 0.91 99 992.9
20260507144721 61 180 2.6 7.0 0.01 0.91 0.91 99 993.0
20260507144211 60 203 3.5 7.8 0.01 0.91 0.91 99 993.1
20260507143150 60 180 5.2 12.2 0.01 0.91 0.91 99 993.4
20260507141110 60 248 5.2 11.3 0.00 0.90 0.90 99 994.5
20260507140610 61 203 4.3 13.9 0.00 0.90 0.90 99 994.5
20260507140050 60 180 5.2 13.9 0.01 0.90 0.90 99 994.0
20260507135540 61 180 7.0 13.0 0.02 0.90 0.90 99 993.6
20260507134520 61 158 7.8 14.8 0.11 0.90 0.90 99 993.3
20260507134010 61 203 7.8 15.6 0.11 0.90 0.90 99 993.6
20260507133500 61 203 8.7 15.6 0.11 0.90 0.90 99 993.2
20260507132950 61 203 9.6 14.8 0.11 0.90 0.90 99 993.8
20260507132439 62 225 8.7 19.1 0.11 0.90 0.90 99 993.5
20260507131929 62 225 7.0 19.1 0.11 0.90 0.90 99 993.0
20260507131419 62 225 7.0 20.0 0.11 0.90 0.90 99 991.8
20260507130911 62 225 7.0 20.0 0.11 0.90 0.90 99 990.4
20260507130359 62 158 9.6 20.0 0.11 0.90 0.90 99 990.4
20260507125849 62 180 9.6 15.6 0.09 0.89 0.89 99 991.8
20260507125339 62 180 7.8 13.9 0.08 0.87 0.87 99 992.9
20260507124828 63 225 8.7 14.8 0.05 0.83 0.83 99 994.2
20260507123809 63 203 7.0 13.9 0.07 0.79 0.79 99 994.0
20260507123258 63 203 6.1 13.0 0.07 0.79 0.79 99 994.4
20260507122748 63 180 6.1 11.3 0.08 0.79 0.79 99 994.2
20260507122238 63 225 7.0 12.2 0.09 0.79 0.79 99 993.8
20260507121728 63 225 6.1 12.2 0.11 0.79 0.79 99 993.6
20260507121217 63 225 6.1 9.6 0.11 0.79 0.79 99 993.5
20260507120708 63 180 3.5 7.8 0.12 0.79 0.79 99 993.3
20260507120158 63 158 1.7 9.6 0.12 0.79 0.79 99 992.9
20260507115648 63 225 3.5 9.6 0.13 0.79 0.79 99 993.0
20260507115137 63 225 1.7 6.1 0.12 0.78 0.79 99 993.6
20260507114627 64 225 1.7 3.5 0.12 0.78 0.78 99 993.4
20260507114117 63 203 0.9 3.5 0.09 0.76 0.76 99 993.5
20260507113607 63 248 0.0 3.5 0.07 0.72 0.72 99 993.9
20260507113056 63 270 0.0 3.5 0.17 0.71 0.71 99 993.2
20260507112546 63 248 0.0 1.7 0.20 0.70 0.70 99 992.7
20260507112036 63 225 0.0 3.5 0.19 0.69 0.69 99 992.3
20260507111526 63 270 1.7 3.5 0.20 0.69 0.69 99 992.4
20260507105956 63 158 0.0 0.0 0.19 0.67 0.67 99 991.1
20260507105446 63 203 0.0 0.0 0.19 0.66 0.66 99 993.0
20260507103916 63 90 3.5 7.8 0.19 0.66 0.66 99 990.0
20260507103405 64 90 2.6 5.2 0.15 0.61 0.63 99 990.6
20260507102855 63 23 0.9 3.5 0.04 0.50 0.50 99 992.1
20260507101836 63 113 0.9 3.5 0.12 0.48 0.48 98 991.1
20260507101325 63 113 0.9 3.5 0.12 0.48 0.48 98 990.3
20260507100815 63 45 0.9 5.2 0.12 0.48 0.48 98 990.4
20260507100304 64 68 1.7 5.2 0.12 0.48 0.48 98 990.3
20260507095755 64 90 1.7 3.5 0.13 0.48 0.48 98 990.1
20260507094735 64 68 1.7 5.2 0.12 0.47 0.47 98 989.8
20260507094224 64 23 1.7 6.1 0.12 0.47 0.47 98 989.4
20260507093714 64 180 1.7 6.1 0.12 0.47 0.47 98 988.8
20260507092654 64 135 0.9 5.2 0.12 0.46 0.46 98 990.2
20260507092144 64 248 0.0 3.5 0.04 0.37 0.37 98 991.0
20260507091634 64 225 0.9 3.5 0.07 0.37 0.37 98 990.2
20260507090103 64 90 1.7 5.2 0.17 0.37 0.37 98 990.5
20260507085553 64 113 0.9 6.1 0.18 0.35 0.35 98 990.6
20260507085043 64 180 2.6 6.1 0.25 0.35 0.35 98 990.9
20260507084533 64 180 1.7 7.0 0.26 0.35 0.35 98 990.6
20260507084023 64 158 2.6 7.8 0.27 0.35 0.35 98 990.4
20260507083513 64 180 6.1 9.6 0.34 0.35 0.35 97 990.6
20260507083003 64 135 3.5 9.6 0.34 0.35 0.35 97 990.8
20260507082452 64 180 5.2 13.0 0.34 0.34 0.34 97 991.3
20260507081942 64 113 1.7 13.0 0.33 0.33 0.33 97 991.6
20260507081434 64 180 5.2 18.2 0.28 0.28 0.28 97 991.4
20260507080412 64 180 11.3 20.0 0.25 0.25 0.25 96 991.6
20260507075902 71 203 3.5 11.3 0.18 0.18 0.18 95 991.4
20260507075351 72 180 3.5 5.2 0.14 0.14 0.15 96 990.5
20260507074844 72 113 0.0 3.5 0.09 0.09 0.11 95 990.7
20260507074332 73 225 0.0 3.5 0.09 0.09 0.09 95 990.9
20260507073311 73 270 0.0 1.7 0.01 0.01 0.01 92 991.0
20260507072801 74 270 0.0 3.5 0.00 0.00 0.00 92 990.9
20260507072251 74 270 0.0 3.5 0.00 0.00 0.00 91 991.4
20260507070720 75 225 1.7 7.0 0.00 0.00 0.00 88 991.8
20260507065701 76 293 0.0 5.2 0.00 0.00 0.00 86 991.6
20260507065122 76 270 0.0 5.2 0.00 0.00 0.00 85 991.8
20260507064103 76 315 0.0 0.0 0.00 0.00 0.00 86 991.6
20260507063551 76 248 0.0 0.0 0.00 0.00 0.00 85 991.5
20260507062534 76 248 0.0 3.5 0.00 0.00 0.00 85 991.7
20260507062024 76 270 0.0 9.6 0.00 0.00 0.00 84 991.9
20260507061002 77 315 0.0 11.3 0.00 0.00 0.00 83 992.0
20260507060453 77 315 1.7 9.6 0.00 0.00 0.00 83 992.3
20260507055432 77 45 3.5 9.6 0.00 0.00 0.00 83 992.1
20260507054923 77 338 0.9 11.3 0.00 0.00 0.00 83 991.9
20260507054412 77 23 2.6 11.3 0.00 0.00 0.00 83 991.9
20260507053902 77 45 0.0 13.0 0.00 0.00 0.00 83 992.3
20260507053352 77 338 4.3 13.0 0.00 0.00 0.00 82 992.2
20260507052332 77 248 1.7 11.3 0.00 0.00 0.00 82 992.7
20260507051822 77 338 3.5 9.6 0.00 0.00 0.00 82 992.7
20260507051312 77 45 0.9 13.0 0.00 0.00 0.00 82 992.8
20260507050801 77 45 0.9 13.0 0.00 0.00 0.00 82 992.7
20260507050251 77 23 0.9 12.2 0.00 0.00 0.00 82 992.6
20260507045741 77 0 1.7 13.0 0.00 0.00 0.00 82 992.4
20260507045231 77 338 2.6 13.0 0.00 0.00 0.00 82 992.1
20260507044211 77 45 3.5 12.2 0.00 0.00 0.00 82 992.2
20260507043151 76 315 0.9 12.2 0.00 0.00 0.00 83 992.3
20260507042640 76 23 0.0 12.2 0.00 0.00 0.00 83 992.1
20260507042130 77 23 3.5 11.3 0.00 0.00 0.00 82 992.1
20260507041620 77 0 3.5 11.3 0.00 0.00 0.00 82 992.4
20260507041110 76 0 2.6 11.3 0.00 0.00 0.00 82 992.7
20260507040600 77 338 3.5 11.3 0.00 0.00 0.00 82 992.6
20260507040059 76 23 3.5 11.3 0.00 0.00 0.00 82 993.0
20260507035540 76 0 1.7 11.3 0.00 0.00 0.00 82 993.1
20260507035030 77 23 4.3 13.9 0.00 0.00 0.00 82 993.3
20260507034519 77 23 6.1 13.9 0.00 0.00 0.00 82 993.7
20260507034009 77 23 3.5 11.3 0.00 0.00 0.00 82 993.8
20260507033459 77 293 1.7 9.6 0.00 0.00 0.00 82 993.8
20260507032949 77 0 0.9 12.2 0.00 0.00 0.00 82 994.1
20260507031929 77 23 3.5 9.6 0.00 0.00 0.00 82 993.8
20260507031419 76 0 1.7 11.3 0.00 0.00 0.00 83 993.7
20260507030909 76 45 0.9 12.2 0.00 0.00 0.00 83 993.8
20260507030359 76 45 3.5 12.2 0.00 0.00 0.00 83 993.9
20260507025849 76 338 3.5 12.2 0.00 0.00 0.01 84 993.9
20260507024828 76 0 3.5 7.0 0.00 0.00 0.01 84 994.1
20260507024318 76 45 1.7 6.1 0.00 0.00 0.01 84 994.5
20260507022748 76 23 0.9 6.1 0.00 0.00 0.01 84 994.8
20260507022238 76 45 0.9 6.1 0.00 0.00 0.01 84 994.8
20260507021728 76 68 1.7 5.2 0.00 0.00 0.01 84 994.9
20260507021217 76 338 0.0 5.2 0.00 0.00 0.01 84 995.0
20260507020707 76 0 0.9 3.5 0.00 0.00 0.01 84 994.8
20260507015647 76 0 0.9 6.1 0.00 0.00 0.01 85 994.9
20260507014627 76 23 0.9 7.0 0.00 0.00 0.01 86 994.9
20260507013057 76 23 1.7 3.5 0.00 0.00 0.01 86 995.1
20260507012547 76 23 1.7 3.5 0.00 0.00 0.01 86 995.3
20260507012037 76 0 1.7 3.5 0.00 0.00 0.01 86 995.3
20260507011526 76 23 0.9 5.2 0.00 0.00 0.01 86 995.3
20260507011016 76 23 1.7 5.2 0.00 0.00 0.01 86 995.3
20260507010506 76 0 1.7 5.2 0.00 0.00 0.01 87 995.0
20260507005956 75 68 0.0 3.5 0.00 0.00 0.01 88 995.0
20260507005447 75 23 0.0 3.5 0.00 0.00 0.01 88 995.1
20260507004936 75 23 0.0 3.5 0.00 0.00 0.01 88 994.9
20260507004426 75 23 0.0 5.2 0.00 0.00 0.01 88 994.8
20260507003405 76 23 1.7 7.0 0.00 0.00 0.01 87 994.9
20260507002855 76 23 1.7 7.8 0.00 0.00 0.01 87 994.8
20260507001835 76 23 0.0 6.1 0.00 0.00 0.01 87 995.1
20260507001326 76 23 0.9 6.1 0.00 0.00 0.01 87 995.3
20260507000306 77 45 0.0 3.5 0.00 0.00 0.01 86 995.5
20260506235244 77 45 0.0 7.0 0.00 0.00 0.01 85 995.5
20260506234735 77 23 0.9 3.5 0.00 0.00 0.01 85 995.9
20260506234224 77 23 0.9 3.5 0.00 0.00 0.01 85 995.9
20260506233714 77 23 0.0 5.2 0.00 0.00 0.01 86 995.9
20260506232654 77 23 1.7 6.1 0.00 0.00 0.01 87 996.0
20260506232144 76 23 0.0 3.5 0.00 0.00 0.01 87 995.9
20260506231634 76 23 0.0 3.5 0.00 0.00 0.01 87 995.9
20260506231123 76 45 0.0 7.0 0.00 0.00 0.01 87 995.8
20260506230103 77 23 0.9 3.5 0.00 0.00 0.01 86 995.9
20260506225553 77 23 0.0 3.5 0.00 0.00 0.01 86 995.7
20260506224533 77 23 0.0 3.5 0.00 0.00 0.01 85 996.1
20260506224023 78 23 0.0 3.5 0.00 0.00 0.01 84 996.2
20260506223512 78 45 0.0 3.5 0.00 0.00 0.01 83 996.2
20260506223002 78 45 0.0 3.5 0.00 0.00 0.01 82 996.2
20260506222452 78 23 0.0 1.7 0.00 0.00 0.01 81 996.4
20260506221942 79 23 0.0 3.5 0.00 0.00 0.01 80 996.0
20260506220922 80 23 0.0 6.1 0.00 0.00 0.01 78 996.3
20260506220412 80 23 0.9 3.5 0.00 0.00 0.01 78 996.2
20260506215903 80 0 0.9 3.5 0.00 0.00 0.01 77 996.5
20260506215351 80 23 0.0 3.5 0.00 0.00 0.01 77 996.3
20260506214841 80 23 0.0 3.5 0.00 0.00 0.01 76 996.2
20260506214331 80 0 0.0 5.2 0.00 0.00 0.01 75 996.2
20260506213821 81 0 0.0 5.2 0.00 0.00 0.01 75 996.4
20260506213311 81 23 0.9 5.2 0.00 0.00 0.01 74 996.3
20260506212801 81 23 0.0 7.8 0.00 0.00 0.01 74 996.2
20260506212251 81 23 0.0 7.8 0.00 0.00 0.01 73 996.4
20260506211741 82 23 0.9 7.0 0.00 0.00 0.01 73 996.1
20260506211232 82 338 1.7 9.6 0.00 0.00 0.01 72 996.3
20260506210721 82 23 4.3 9.6 0.00 0.00 0.01 72 996.4
20260506210210 82 23 3.5 7.8 0.00 0.00 0.01 72 996.4
20260506205700 82 0 1.7 7.8 0.00 0.00 0.01 73 996.2
20260506205150 82 0 1.7 7.8 0.00 0.00 0.01 72 996.2
20260506204640 82 23 1.7 7.8 0.00 0.00 0.01 72 996.4
20260506204130 83 45 0.9 7.8 0.00 0.00 0.01 71 996.5
20260506203620 83 338 1.7 13.0 0.00 0.00 0.01 71 996.5
20260506203110 83 0 1.7 13.0 0.00 0.00 0.01 71 996.4